Hourly Data Report for October 06, 2015

All times are specified in Local Standard Time (LST). Add 1 hour to adjust for Daylight Saving Time where and when it is observed.

CLYDE RIVER A
NUNAVUT

70°29'09.000" N
68°31'01.000" W
26.50 m
2400804
71090
YCY

Download Data

Hourly Data (October 2015)
Hourly Data Report for October 6, 2015
Temp Definition
°C
Dew Point Temp Definition
°C
Rel Hum Definition
%
Wind Dir Definition
10's deg

Wind Spd Definition
km/h
Visibility Definition
km
Stn Press Definition
kPa
Hmdx Definition


Wind Chill Definition


Weather Definition


TIME
00:00 Legend Double Dagger -2.0 -6.2 73 22 13 16.1 100.75   -6 LegendNANA
01:00 Legend Double Dagger -0.8 -5.6 70 20 18 16.1 100.76   -6 LegendNANA
02:00 Legend Double Dagger -0.2 -6.2 64 22 15 16.1 100.75   -5 LegendNANA
03:00 Legend Double Dagger -0.7 -5.5 70 23 15 16.1 100.74   -5 LegendNANA
04:00 Legend Double Dagger -0.7 -5.2 72 25 9 16.1 100.74   -4 LegendNANA
05:00 Legend Double Dagger -1.1 -5.6 71 25 11 16.1 100.73   -5 LegendNANA
06:00 Legend Double Dagger -1.9 -5.0 79 LegendMM 5 16.1 100.75   -4 LegendNANA
07:00 Legend Double Dagger -1.3 -5.4 74   0 16.1 100.74     LegendNANA
08:00 Legend Double Dagger -1.3 -5.4 74 31 11 16.1 100.72   -5 LegendNANA
09:00 Legend Double Dagger -0.8 -5.1 73 25 8 16.1 100.70   -4 LegendNANA
10:00 Legend Double Dagger -0.2 -5.2 69 25 9 11.3 100.67   -3 LegendNANA
11:00 Legend Double Dagger 0.2 -5.0 68 24 9 16.1 100.63     LegendNANA
12:00 Legend Double Dagger 0.5 -4.7 68 24 4 16.1 100.60     LegendNANA
13:00 Legend Double Dagger 0.6 -5.0 66 24 4 16.1 100.59     LegendNANA
14:00 Legend Double Dagger 0.5 -4.8 68 26 4 16.1 100.56     LegendNANA
15:00 Legend Double Dagger 0.3 -4.2 72 23 4 16.1 100.56     LegendNANA
16:00 Legend Double Dagger -0.2 -3.9 76 25 5 3.2 100.52   -2 Haze
17:00 Legend Double Dagger -0.8 -4.7 75 24 5 12.9 100.47   -2 LegendNANA
18:00 Legend Double Dagger -1.5 -5.3 75 26 9 16.1 100.44   -5 LegendNANA
19:00 Legend Double Dagger -1.4 -5.3 75 25 5 16.1 100.39   -3 LegendNANA
20:00 Legend Double Dagger -1.5 -6.1 71 27 4 16.1 100.34   -3 LegendNANA
21:00 Legend Double Dagger -2.0 -6.4 72 27 5 16.1 100.28   -4 LegendNANA
22:00 Legend Double Dagger -2.3 -6.7 72 23 9 16.1 100.24   -6 LegendNANA
23:00 Legend Double Dagger -2.9 -7.7 70 25 8 16.1 100.20   -6 LegendNANA

Notes on Data Quality.

Legend

  • E = Estimated
  • M = Missing
  • NA = Not Available
  • ‡ = Partner data that is not subject to review by the National Climate Archives
Date modified: